Flag for U.S.A. Weather past 2 weeks in Tuba City, Arizona, U.S.A.

Now
36 °F

Sunny.


Feels Like: 28 °F
Forecast: 26 / 57 °F
Wind: 12 mph from Northeast

Location: Grand Canyon National Park Airport

Current Time: Jan 25, 2015 at 8:09:17 AM

Latest Report: Jan 25, 2015 at 7:54 AM


Visibility: 10 mi

Pressure: 30.34 "Hg

Humidity: 57%

Dew point: 22 °F

Location of Tuba CityLocation

Historic Weather in Tuba City — Graph

°F

Tuba City temperature yesterday

Maximum temperature yesterday: 49 °F (at 3:54 PM)
Minimum temperature yesterday: 25 °F (at 11:54 PM)
Average temperature yesterday: 37 °F

Past Weeks' High & Low Weather Summary

 TemperatureHumidityPressure
High58 °F (Jan 18, 3:54 PM)100% (Jan 10, 8:54 PM)30.49 "Hg (Jan 10, 8:54 PM)
Low11 °F (Jan 22, 5:54 AM)11% (Jan 16, 2:54 PM)29.95 "Hg (Jan 21, 4:54 AM)
Average33 °F70%30.23 "Hg
* Reported Jan 10 6:54 AM — Jan 25 6:54 AM, Tuba City, Weather by CustomWeather, © 2014

Note: Actual official high and low records may vary slightly from our data, if they occured in-between our weather recording intervals... More about our weather records

Advertising

Tuba City weather history for previous 24 hours

 ConditionsComfort  
Time TempWeatherWind HumidityBarometerVisibility
6:54 AM
Jan 25
33 °FClear.9 mph61%30.34 "Hg10 mi
5:54 AM33 °FClear.3 mph56%30.29 "Hg10 mi
4:54 AM23 °FClear.5 mph74%30.29 "Hg10 mi
3:54 AM25 °FClear.No wind69%30.28 "Hg10 mi
2:54 AM20 °FClear.No wind82%30.31 "Hg10 mi
1:54 AM21 °FClear.No wind78%30.30 "Hg10 mi
12:54 AM24 °FClear.5 mph68%30.29 "Hg10 mi
11:54 PM
Jan 24
25 °FClear.6 mph69%30.29 "Hg10 mi
10:54 PM27 °FClear.5 mph61%30.28 "Hg10 mi
9:54 PM33 °FClear.7 mph49%30.27 "Hg10 mi
8:54 PM28 °FClear.7 mph61%30.31 "Hg10 mi
7:54 PM27 °FClear.No wind58%30.33 "Hg10 mi
6:54 PM31 °FClear.3 mph49%30.30 "Hg10 mi
5:54 PM38 °FClear.6 mph36%30.26 "Hg10 mi
4:54 PM48 °FSunny.6 mph24%30.19 "Hg10 mi
3:54 PM49 °FSunny.8 mph21%30.21 "Hg10 mi
2:54 PM47 °FSunny.13 mph22%30.23 "Hg10 mi
1:54 PM46 °FSunny.14 mph25%30.24 "Hg10 mi
12:54 PM45 °FSunny.14 mph25%30.26 "Hg10 mi
11:54 AM44 °FSunny.21 mph25%30.31 "Hg10 mi
10:54 AM43 °FSunny.13 mph28%30.32 "Hg10 mi
9:54 AM41 °FSunny.17 mph30%30.32 "Hg10 mi
8:54 AM38 °FSunny.13 mph29%30.34 "Hg10 mi
Weather by CustomWeather, © 2014

See weather overviewHow to use our weather pages